Location: ???????
(55.4362°N, 38.1183°E)
Time: 11:17:35
(UTC+00:00)

M-CUBED/EXP-1 PRIME - Pass Details

Date: 10 December 2021
Orbit: 426 x 650 km, 101.7° (Epoch: 24 January)

Event Time Altitude Azimuth Distance (km) Brightness Sun altitude
Rises 04:17:13 0° 27° (NNE) 2,982 ? -11.1°
Reaches altitude 10° 04:19:40 10° 37° (NE) 2,053 ? -10.8°
Maximum altitude 04:23:43 33° 102° (ESE) 1,062 ? -10.3°
Drops below altitude 10° 04:27:36 10° 167° (SSE) 1,959 ? -9.8°
Sets 04:29:52 0° 177° (S) 2,824 ? -9.5°
